Location: Seattle
(47.6064°N, 122.3308°W)
Time: 04:32:59
(UTC-08:00)

S-56A Canister/Altair - Pass Details

Date: 05 December 2020
Orbit: 633 x 2499 km, 38.9° (Epoch: 23 January)

Event Time Altitude Azimuth Distance (km) Brightness Sun altitude
Rises 17:45:39 0° 236° (SW) 6,125 13.7 -14.1°
Reaches altitude 10° 17:50:03 10° 231° (SW) 5,012 12.8 -14.8°
Maximum altitude 18:02:57 47° 165° (SSE) 2,479 10.0 -16.9°
Enters shadow 18:10:12 19° 103° (ESE) 3,187 10.1 -18.0°
Drops below altitude 10° 18:12:22 10° 96° (E) 3,702 - -18.4°
Sets 18:15:06 0° 90° (E) 4,449 - -18.8°
